TimeCDT,TemperatureF,Dew PointF,Humidity,Sea Level PressureIn,VisibilityMPH,Wind Direction,Wind SpeedMPH,Gust SpeedMPH,PrecipitationIn,Events,Conditions,WindDirDegrees,DateUTC
12:53 AM,66.0,59.0,78,30.01,10.0,SSW,9.2,-,N/A,,Overcast,200,2013-08-09 05:53:00
1:53 AM,66.0,59.0,78,30.00,10.0,Calm,Calm,-,N/A,,Overcast,0,2013-08-09 06:53:00
2:53 AM,64.9,57.9,78,30.00,10.0,SW,5.8,-,N/A,,Overcast,220,2013-08-09 07:53:00
3:53 AM,64.9,59.0,81,30.00,10.0,WNW,4.6,-,N/A,,Overcast,300,2013-08-09 08:53:00
4:53 AM,63.0,59.0,87,30.00,10.0,WNW,4.6,-,N/A,,Overcast,300,2013-08-09 09:53:00
5:53 AM,63.0,60.1,90,30.01,10.0,WNW,4.6,-,N/A,,Overcast,300,2013-08-09 10:53:00
6:53 AM,63.0,61.0,93,30.03,8.0,NNW,8.1,-,N/A,,Mostly Cloudy,330,2013-08-09 11:53:00
7:53 AM,64.9,60.1,84,30.05,10.0,NNW,5.8,-,N/A,,Clear,340,2013-08-09 12:53:00
8:53 AM,68.0,59.0,73,30.06,10.0,North,9.2,-,N/A,,Clear,350,2013-08-09 13:53:00
9:53 AM,72.0,60.1,66,30.06,-9999.0,North,12.7,-,N/A,,Unknown,350,2013-08-09 14:53:00
10:53 AM,73.9,55.0,52,30.06,-9999.0,North,-9999.0,-,N/A,,Clear,0,2013-08-09 15:53:00
11:53 AM,75.0,54.0,48,30.06,10.0,NNW,13.8,-,N/A,,Clear,330,2013-08-09 16:53:00
12:53 PM,75.9,55.0,48,30.07,10.0,NNW,15.0,-,N/A,,Clear,340,2013-08-09 17:53:00
1:53 PM,75.9,55.0,48,30.07,10.0,NW,12.7,-,N/A,,Clear,320,2013-08-09 18:53:00
2:53 PM,77.0,57.0,50,30.07,10.0,North,12.7,-,N/A,,Partly Cloudy,350,2013-08-09 19:53:00
3:53 PM,75.9,55.9,50,30.07,10.0,NW,12.7,-,N/A,,Partly Cloudy,320,2013-08-09 20:53:00
4:53 PM,75.9,57.0,52,30.07,10.0,NNW,15.0,19.6,N/A,,Scattered Clouds,330,2013-08-09 21:53:00
5:53 PM,75.0,57.0,53,30.07,10.0,NNW,10.4,-,N/A,,Partly Cloudy,330,2013-08-09 22:53:00
6:53 PM,73.9,55.9,53,30.07,10.0,NW,13.8,-,N/A,,Clear,320,2013-08-09 23:53:00
7:53 PM,71.1,57.9,63,30.09,10.0,NNW,10.4,-,N/A,,Partly Cloudy,330,2013-08-10 00:53:00
8:53 PM,63.0,57.0,81,30.10,10.0,NNW,6.9,-,N/A,,Clear,340,2013-08-10 01:53:00
9:53 PM,60.1,55.0,83,30.12,10.0,Calm,Calm,-,N/A,,Clear,0,2013-08-10 02:53:00
10:53 PM,59.0,54.0,83,30.13,10.0,NNW,5.8,-,N/A,,Clear,330,2013-08-10 03:53:00
11:53 PM,57.9,52.0,81,30.14,10.0,WNW,5.8,-,N/A,,Clear,290,2013-08-10 04:53:00